Regional Weather Roundup
Issued by NWS Little Rock, AR

Home | Current Version | Previous Version | Graphics & Text | Print | Product List | Glossary On
Versions: 1 2 3 4 5 6 7 8 9 10 11 12 13 14 15 16 17 18 19 20 21 22 23 24 25 26 27 28 29 30 31 32
000
ASUS44 KLZK 241405
RWRLZK

WEATHER ROUNDUP FOR ARKANSAS
NATIONAL WEATHER SERVICE LITTLE ROCK AR
900 AM CDT SAT SEP 24 2016

NOTE: "FAIR" INDICATES FEW OR NO CLOUDS BELOW 12,000 FEET WITH NO
SIGNIFICANT WEATHER AND/OR OBSTRUCTIONS TO VISIBILITY.

ARZ001-003-010-029-241500-
NORTHWEST ARKANSAS

CITY           SKY/WX    TMP DP  RH WIND       PRES   REMARKS
FAYETTEVILLE   SUNNY     74  71  91 CALM      30.10R
FORT SMITH     SUNNY     77  69  76 E6        30.06S
HARRISON       SUNNY     73  69  87 SE3       30.13S
BENTONVILLE    SUNNY     73  66  78 SE6       30.10S
ROGERS         MOSUNNY   76  70  82 SE8       30.11R
SILOAM SPGS    SUNNY     75  63  64 SW5         N/A
HIGHFILL       SUNNY     76  71  85 S7        30.09S
SPRINGDALE     MOSUNNY   77  70  78 SE5       30.11S
$$

ARZ004-005-016-241500-
NORTH CENTRAL ARKANSAS

CITY           SKY/WX    TMP DP  RH WIND       PRES   REMARKS
BATESVILLE     SUNNY     72  68  88 CALM      30.11R
FLIPPIN        SUNNY     72  66  83 E3        30.09S
MTN HOME       SUNNY     74  69  85 SE3       30.11S
$$

ARZ040-041-241500-
WEST CENTRAL ARKANSAS

CITY           SKY/WX    TMP DP  RH WIND       PRES   REMARKS
MENA           MOSUNNY   77  75  94 CALM      30.10F
MOUNT IDA      SUNNY     75  72  90 CALM      30.07S
$$

ARZ009-017-025-026-028-241500-
NORTHEAST ARKANSAS

CITY           SKY/WX    TMP DP  RH WIND       PRES   REMARKS
CORNING          N/A     73  73 100 N3        30.11R
JONESBORO      SUNNY     76  69  79 CALM      30.10R
NEWPORT        SUNNY     74  71  91 CALM      30.10S
WALNUT RIDGE   SUNNY     75  70  83 CALM      30.10R
BLYTHEVILLE    MOSUNNY   80  69  69 SE5       30.11R
$$

ARZ022-023-033-042-044-241500-
CENTRAL ARKANSAS

CITY           SKY/WX    TMP DP  RH WIND       PRES   REMARKS
LITTLE ROCK    MOSUNNY   79  73  82 CALM      30.09R
N LITTLE ROCK    N/A     80  74  80 CALM      30.06S HX  85
JACKSONVILLE   SUNNY     77  72  85 NE2       30.09R
SEARCY         SUNNY     77  72  84 CALM      30.11R
HOT SPRINGS    SUNNY     77  71  82 CALM      30.09S
RUSSELLVILLE   SUNNY     76  70  82 E3        30.08R
$$

ARZ036-241500-
EAST ARKANSAS

CITY           SKY/WX    TMP DP  RH WIND       PRES   REMARKS
WEST MEMPHIS   SUNNY     81  69  67 CALM      30.08S
$$

ARZ050-053-066-070-073-241500-
SOUTHWEST ARKANSAS

CITY           SKY/WX    TMP DP  RH WIND       PRES   REMARKS
ARKADELPHIA    FAIR      74  72  93 CALM      30.09R
TEXARKANA      SUNNY     79  74  84 S6        30.07S
EL DORADO      HAZE      77  72  84 CALM      30.09R VSB 3/4
DE QUEEN       SUNNY     78  76  93 E3        30.05F
$$

ARZ056-057-069-241500-
SOUTHEAST ARKANSAS

CITY           SKY/WX    TMP DP  RH WIND       PRES   REMARKS
PINE BLUFF     SUNNY     77  72  84 CALM      30.09S
STUTTGART      SUNNY     79  66  65 CALM      30.10S
MONTICELLO     SUNNY     77  71  82 CALM      30.09R

$$






USA.gov is the U.S. government's official web portal to all federal, state and local government web resources and services.